Find Vanguard

NORAD ID: 58340 Int'l Des: 2023-174 Owner: SPIREG/GHG Country: US operational
LEOCIRCULARRETROGRADESSO

当前视图

正在加载3D地球...

About Vanguard

Vanguard (NORAD 58340) is a satellite launched Nov 11, 2023 by SPIREG/GHG of US. It operates in LEO, CIRCULAR, RETROGRADE, SSO orbit with a mass of 20.00 kg.

即将过境

Passes for default location (London). Set your location on the main map for personalized predictions.

高度历史

Loading altitude history...

两行轨道根数

1 58340U 23174CN 26194.83655743 .00011620 00000-0 24131-3 0 9994
2 58340 97.3983 285.3735 0005431 34.6168 325.5433 15.45830894149764
Epoch: Jul 13, 2026 • Age: 8 hours

当前状态

高度 437.5 km
远地点 / 近地点 N/A
速度 7.65 km/s
星下点 50.99°N, 116.86°E
发射日期 Nov 11, 2023
运行时间 2.6 years
类型 other

技术详情

分类 Payload
质量 20.00 kg
干质量 20.00 kg
总质量 20.00 kg
长度 0.40 m
直径 0.40 m
跨度 0.40 m
形状 Box
制造商 SPIREG
平台类型 Cubesat 16U
阶段状态 In Orbit
所有者/国家 SPIREG/GHG/US

Most Searched